Curtin, Western Australia

5:48 PM AWST on February 13, 2016 (GMT +0800)
Curtin

Weather History for YCIN - October, 2012

Change the Weather History Date:

Friday, October 5, 2012

  Actual Average Record
Temperature  
Mean Temperature 82 °F -  
Max Temperature 102 °F - - ()
Min Temperature 63 °F - - ()
Cooling Degree Days 18    
Growing Degree Days 32 (Base 50)    
Moisture  
Dew Point 58 °F    
Average Humidity 50    
Maximum Humidity 96    
Minimum Humidity 7    
Precipitation  
Precipitation 0.00 in - - ()
Sea Level Pressure  
Sea Level Pressure 29.89 in    
Wind  
Wind Speed 4 mph ()    
Max Wind Speed 7 mph    
Max Gust Speed -    
T = Trace of Precipitation, MM = Missing Value Source: Averaged Metar Reports

Daily Weather History Graph

Daily Weather History Graph

Search for Another Location

Airport or City:

Trip Planner

Search our weather history database for the weather conditions in past years. The results will help you decide how hot, cold, wet, or windy it might be!

Date:

Astronomy

Oct. 05, 2012 Rise Set
Actual Time 5:23 AM AWST 5:42 PM AWST
Civil Twilight 5:01 AM AWST 6:04 PM AWST
Nautical Twilight 4:36 AM AWST 6:30 PM AWST
Astronomical Twilight 4:10 AM AWST 6:55 PM AWST
Moon 10:00 PM AWST (10/5) 8:39 AM AWST (10/5)
Length of Visible Light 13h 02m
Length of Day
12h 19m
Waning Gibbous, 78% of the Moon is Illuminated
Oct 5
Waning Gibbous
Oct 8
Last Quarter
Oct 15
New
Oct 22
First Quarter
Oct 30
Full

Hourly Weather History & Observations

Time (AWST) Temp. Heat Index Dew Point Humidity Pressure Visibility Wind Dir Wind Speed Gust Speed Precip Events Conditions
12:00 AM 73 °F - 62 °F 59% 29.89 in - WSW 4.6 mph - -  
12:00 AM 73.4 °F - 60.8 °F 65% 29.89 in - WSW 4.6 mph - N/A   Unknown
1:00 AM 71.6 °F - 64.4 °F 78% 29.89 in - SSW 5.8 mph - N/A   Unknown
2:00 AM 71.6 °F - 68.0 °F 88% 29.86 in - SW 6.9 mph - N/A   Unknown
3:00 AM 70 °F - 67 °F 88% 29.86 in - SW 6.9 mph - -  
3:00 AM 69.8 °F - 68.0 °F 94% 29.86 in - SSW 6.9 mph - N/A   Unknown
4:00 AM 68.0 °F - 64.4 °F 88% 29.89 in - Calm Calm - N/A   Unknown
5:00 AM 64.4 °F - 60.8 °F 88% 29.89 in - SW 1.2 mph - N/A   Unknown
6:00 AM 65 °F - 64 °F 96% 29.93 in - NNE 3.5 mph - -  
6:00 AM 66.2 °F - 64.4 °F 94% 29.92 in - NNE 3.5 mph - N/A   Unknown
7:00 AM 71.6 °F - 69.8 °F 94% 29.95 in - NE 1.2 mph - N/A   Unknown
8:00 AM 80.6 °F 82.7 °F 66.2 °F 61% 29.98 in - South 2.3 mph - N/A   Unknown
9:00 AM 85 °F - 62 °F 36% 29.96 in - South 4.6 mph - -  
9:00 AM 86.0 °F 86.6 °F 62.6 °F 45% 29.98 in - South 4.6 mph - N/A   Unknown
10:00 AM 91.4 °F 90.7 °F 59.0 °F 34% 29.95 in - Calm Calm - N/A   Unknown
11:00 AM 95.0 °F 92.7 °F 53.6 °F 25% 29.92 in - SW 6.9 mph - N/A   Unknown
12:00 PM 98 °F - 49 °F 11% 29.88 in - NNW 4.6 mph - -  
12:00 PM 98.6 °F - 50.0 °F 19% 29.89 in - NNW 4.6 mph - N/A   Unknown
1:00 PM 100.4 °F - 46.4 °F 16% 29.86 in - West 5.8 mph - N/A   Unknown
2:00 PM 100.4 °F - 44.6 °F 15% 29.83 in - West 6.9 mph - N/A   Unknown
3:00 PM 102 °F - 44 °F 7% 29.82 in - WSW 5.8 mph - -  
3:00 PM 102.2 °F - 44.6 °F 14% 29.83 in - WSW 5.8 mph - N/A   Unknown
4:00 PM 102.2 °F - 42.8 °F 13% 29.83 in - ESE 1.2 mph - N/A   Unknown
5:00 PM 98.6 °F - 41.0 °F 14% 29.83 in - SSW 3.5 mph - N/A   Unknown
6:00 PM 88 °F - 55 °F 23% 29.85 in - NW 6.9 mph - -  
6:00 PM 87.8 °F 86.1 °F 55.4 °F 33% 29.86 in - NW 6.9 mph - N/A   Unknown
7:00 PM 82.4 °F 83.9 °F 64.4 °F 54% 29.89 in - NW 5.8 mph - N/A   Unknown
8:00 PM 78.8 °F - 64.4 °F 61% 29.92 in - NNW 3.5 mph - N/A   Unknown
9:00 PM 80 °F - 60 °F 40% 29.91 in - West 6.9 mph - -  
9:00 PM 78.8 °F - 59.0 °F 51% 29.92 in - West 6.9 mph - N/A   Unknown
10:00 PM 77.0 °F - 53.6 °F 44% 29.92 in - SW 5.8 mph - N/A   Unknown
11:00 PM 77.0 °F - 55.4 °F 47% 29.89 in - SW 6.9 mph - N/A   Unknown